Regional Weather Roundup
Issued by NWS Green Bay, WI

Home | Current Version | Previous Version | Text Only | Print | Product List | Glossary On
Versions: 1 2 3 4 5 6 7 8 9 10 11 12 13 14 15 16 17 18 19 20 21 22 23 24 25 26 27 28 29 30 31 32 33 34 35 36 37 38 39 40 41 42 43 44 45 46 47 48 49 50
000
ASUS43 KGRB 172200
RWRGRB

NORTH-CENTRAL AND NORTHEAST WISCONSIN REGIONAL WEATHER ROUNDUP
NATIONAL WEATHER SERVICE GREEN BAY WI
400 PM CST SAT FEB 17 2018

WIZ005-009-010>012-018-019-172300-
NORTH CENTRAL WISCONSIN

CITY           SKY/WX    TMP DP  RH WIND       PRES   REMARKS
IRONWOOD       PTSUNNY   27  15  61 NW13      29.77R
MANITOWISH WTR NOT AVBL
ARBOR VITAE    NOT AVBL
EAGLE RIVER    PTSUNNY   28  17  63 SW10      29.74R
LAND O LAKES   NOT AVBL
RHINELANDER    FAIR      28  20  71 SW8       29.77R
PHILLIPS       NOT AVBL
ANTIGO         NOT AVBL
TOMAHAWK       NOT AVBL
MERRILL        NOT AVBL
$$

WIZ013-073-172300-
NORTHEAST WISCONSIN

CITY           SKY/WX    TMP DP  RH WIND       PRES   REMARKS
IRON MOUNTAIN  FAIR      28  18  66 SW9       29.74S
MARINETTE      MIX PCPN  26  21  81 W9        29.85S
$$

WIZ017-030-035>037-045-172300-
CENTRAL WISCONSIN

CITY           SKY/WX    TMP DP  RH WIND       PRES   REMARKS
MEDFORD        NOT AVBL
WAUSAU         CLOUDY    25  19  78 W8        29.82R
MOSINEE        PTSUNNY   25  21  86 W10       29.85R
MARSHFIELD     CLOUDY    26  20  77 W12       29.85R
WISC RAPIDS    CLOUDY    27  20  75 W9        29.89R
STEVENS POINT  NOT AVBL
WAUPACA        NOT AVBL
SHAWANO        NOT AVBL
CLINTONVILLE   LGT SNOW  27  22  82 SW7       29.87S
WAUTOMA        CLOUDY    27  23  85 SW7       29.90R
$$

WIZ038-039-048-051-172300-
FOX VALLEY

CITY           SKY/WX    TMP DP  RH WIND       PRES   REMARKS
NWS GREEN BAY  LGT SNOW  26  22  84 SW7       29.88S FOG
APPLETON       LGT SNOW  27  21  80 SW12      29.87R
OSHKOSH        LGT SNOW  26  22  84 SW8       29.90R FOG
FOND DU LAC    LGT SNOW  27  22  81 SW5       29.91R VSB 1
$$

WIZ022-050-052-172300-
EAST CENTRAL WISCONSIN

CITY           SKY/WX    TMP DP  RH WIND       PRES   REMARKS
EPHRAIM        NOT AVBL
WASHINGTON ISL NOT AVBL
STURGEON BAY   LGT SNOW  24  21  88 SW12      29.86S FOG
MANITOWOC      LGT SNOW  26  23  88 SW9       29.91R FOG
SHEBOYGAN      LGT SNOW  27  25  92 W7        29.91R FOG
$$

LMZ563-521-522-541>543-172300-
LAKESHORE

STATION/POSITION TIME  TEMP    WIND        PRES    VSBY  WAVE
                       AIR SEA DIR/SP/G                  HT/PER
                 (UTC) (F)     (DEG/KT/KT) (MB)    (MI)  (FT/S)
SHEBOYGAN LKSHOR 2100   28     250/ 11/ 13 1013.2S
KEWAUNEE LKSHORE 2130   25     230/  5/  9 1011.2F
NORTHPORT PIER   2140   24                 1010.2S
SISTER BAY LKSHO 2105   25     230/ 14/ 17   N/A
MENOMINEE LKSHOR 2124   25     220/ 11/ 16 1010.5
$$




USA.gov is the U.S. government's official web portal to all federal, state and local government web resources and services.